Retour au catalogue

FENGYUN 1C DEB

ActifSSO
NORAD 30270·DEBRIS·🇨🇳 China

Lancé May 10, 1999 depuis Taiyuan Satellite Launch Center

Loading…

Prochains Passages (prochaines 24 heures)

TLE

FraisSource: Space-Track

Époque: Sep 14, 2026, 06:55 UTC

1 30270U 99025YF  26257.28858978  .00000047  00000-0  49445-4 0  9995
2 30270  98.6953 267.4714 0008217 102.1325 323.3606 14.11380218 12473

Suivez FENGYUN 1C DEB en temps réel avec AllMySat

Download on the App Store